CW0060 Weather Reports


Display with metric or nautical units.
time (UTC)temp
F
wind
direction
speed
MPH
gust
MPH
rain 1hr
in
rain 24hr
in
rain mn
in
humidity
%
barometer
mb
20221207165206 35 277 2.0 4.0 0.02 0.04 0.03 90 1013.4
20221207164707 35 231 2.0 4.0 0.03 0.04 0.03 90 1013.4
20221207164206 35 217 1.0 4.0 0.03 0.04 0.03 90 1013.3
20221207163707 35 222 2.0 4.0 0.03 0.04 0.03 90 1013.4
20221207163207 35 222 2.0 4.0 0.03 0.04 0.03 89 1013.4
20221207162209 35 269 1.0 2.0 0.03 0.04 0.03 89 1013.4
20221207161707 35 269 1.0 3.0 0.03 0.04 0.03 89 1013.5
20221207161207 35 314 0.0 5.0 0.03 0.04 0.03 88 1013.6
20221207160207 35 222 3.0 10.0 0.02 0.03 0.02 88 1013.6
20221207155708 36 222 4.0 10.0 0.02 0.02 0.02 88 1013.7
20221207155207 36 291 4.0 10.0 0.01 0.02 0.01 87 1013.9
20221207154707 37 315 5.0 8.0 0.00 0.01 0.00 88 1013.9
20221207154207 37 276 5.0 8.0 0.00 0.01 0.00 88 1013.9
20221207153707 37 224 5.0 8.0 0.00 0.01 0.00 88 1013.7
20221207153206 37 219 4.0 7.0 0.00 0.01 0.00 87 1013.6
20221207152706 37 203 4.0 7.0 0.00 0.01 0.00 87 1013.7
20221207152207 37 238 4.0 7.0 0.00 0.01 0.00 87 1013.7
20221207151706 38 194 4.0 8.0 0.00 0.01 0.00 86 1013.6
20221207150707 38 210 5.0 10.0 0.00 0.01 0.00 86 1013.6
20221207145207 38 203 6.0 9.0 0.00 0.01 0.00 86 1013.7
20221207144707 38 202 5.0 7.0 0.00 0.01 0.00 86 1013.6
20221207144207 38 229 5.0 7.0 0.00 0.01 0.00 86 1013.7
20221207143206 38 276 4.0 8.0 0.00 0.01 0.00 86 1013.9
20221207142207 38 226 6.0 11.0 0.00 0.01 0.00 86 1013.9
20221207141707 38 234 6.0 11.0 0.00 0.01 0.00 86 1013.9
20221207141207 38 236 7.0 11.0 0.00 0.01 0.00 86 1013.9
20221207140707 38 255 7.0 10.0 0.00 0.01 0.00 86 1013.9
20221207140207 38 240 7.0 10.0 0.00 0.01 0.00 86 1013.9
20221207135707 38 290 6.0 10.0 0.00 0.01 0.00 86 1013.9
20221207134707 38 274 6.0 10.0 0.00 0.01 0.00 87 1013.9
20221207134207 38 253 6.0 12.0 0.00 0.01 0.00 87 1013.9
20221207133707 38 276 7.0 12.0 0.00 0.01 0.00 87 1013.9
20221207132706 38 243 7.0 12.0 0.00 0.01 0.00 88 1013.8
20221207132207 38 210 6.0 10.0 0.00 0.01 0.00 88 1013.7
20221207131707 38 252 6.0 11.0 0.00 0.01 0.00 88 1014.0
20221207131207 38 296 7.0 11.0 0.00 0.01 0.00 88 1014.1
20221207130707 38 281 7.0 11.0 0.00 0.01 0.00 88 1014.2
20221207130210 38 226 6.0 11.0 0.00 0.01 0.00 88 1014.2
20221207125707 38 219 5.0 10.0 0.00 0.01 0.00 88 1014.3
20221207124706 38 246 5.0 10.0 0.00 0.01 0.00 88 1014.3
20221207124207 38 303 6.0 11.0 0.00 0.01 0.00 88 1014.3
20221207123707 38 255 7.0 11.0 0.00 0.01 0.00 88 1014.3
20221207122206 38 278 5.0 9.0 0.00 0.01 0.00 89 1014.4
20221207121207 38 250 4.0 8.0 0.00 0.01 0.00 89 1014.5
20221207120730 38 233 4.0 10.0 0.00 0.01 0.00 89 1014.6
20221207120207 38 226 4.0 10.0 0.00 0.01 0.00 90 1014.6
20221207115707 38 259 5.0 10.0 0.00 0.01 0.00 90 1014.6
20221207115206 38 324 5.0 9.0 0.00 0.01 0.00 90 1014.6
20221207114707 38 274 4.0 9.0 0.00 0.01 0.00 90 1014.7
20221207114206 38 212 5.0 9.0 0.00 0.01 0.00 90 1014.7
20221207113707 38 224 5.0 9.0 0.00 0.01 0.00 90 1014.7
20221207113207 38 295 5.0 11.0 0.00 0.01 0.00 90 1014.7
20221207112707 38 234 6.0 11.0 0.00 0.01 0.00 90 1014.7
20221207111707 37 222 7.0 11.0 0.00 0.01 0.00 90 1014.8
20221207111207 37 226 7.0 11.0 0.00 0.01 0.00 90 1014.8
20221207110707 37 227 6.0 11.0 0.00 0.01 0.00 90 1014.9
20221207110206 37 239 7.0 11.0 0.00 0.01 0.00 90 1014.9
20221207105209 37 239 7.0 12.0 0.00 0.01 0.00 91 1015.0
20221207104707 37 243 6.0 12.0 0.00 0.01 0.00 91 1015.1
20221207104209 37 260 5.0 10.0 0.00 0.01 0.00 91 1015.1
20221207103206 37 271 6.0 11.0 0.00 0.01 0.00 91 1015.2
20221207101707 37 227 6.0 11.0 0.00 0.01 0.00 91 1015.2
20221207101209 37 252 6.0 11.0 0.00 0.01 0.00 91 1015.4
20221207100707 37 236 6.0 11.0 0.00 0.01 0.00 91 1015.3
20221207100225 37 262 6.0 11.0 0.00 0.01 0.00 91 1015.3
20221207095709 37 255 6.0 10.0 0.00 0.01 0.00 92 1015.2
20221207095208 37 293 6.0 10.0 0.00 0.01 0.00 92 1015.4
20221207094707 37 307 6.0 12.0 0.00 0.01 0.00 92 1015.3
20221207094206 37 255 7.0 12.0 0.00 0.01 0.00 92 1015.4
20221207093709 36 252 7.0 12.0 0.00 0.01 0.00 93 1015.3
20221207093206 36 240 6.0 11.0 0.00 0.01 0.00 93 1015.3
20221207092207 36 231 6.0 10.0 0.00 0.01 0.00 93 1015.4
20221207091707 36 243 6.0 10.0 0.00 0.01 0.00 93 1015.4
20221207091207 36 262 6.0 10.0 0.00 0.01 0.00 93 1015.3
20221207090708 36 236 5.0 10.0 0.00 0.01 0.00 93 1015.4
20221207090225 36 250 4.0 9.0 0.00 0.01 0.00 93 1015.3
20221207085707 36 219 5.0 9.0 0.00 0.01 0.00 93 1015.3
20221207085207 35 219 5.0 8.0 0.00 0.01 0.00 93 1015.3
20221207084207 35 260 5.0 9.0 0.00 0.01 0.00 93 1015.4
20221207083707 35 234 5.0 9.0 0.00 0.01 0.00 93 1015.4
20221207083207 35 227 5.0 8.0 0.00 0.01 0.00 93 1015.3
20221207082707 35 221 5.0 9.0 0.00 0.01 0.00 93 1015.3
20221207082207 35 278 5.0 9.0 0.00 0.01 0.00 93 1015.4
20221207081707 35 222 5.0 8.0 0.00 0.01 0.00 93 1015.4
20221207081211 35 229 5.0 8.0 0.00 0.01 0.00 93 1015.4
20221207080710 35 217 5.0 9.0 0.00 0.01 0.00 93 1015.4
20221207080206 35 243 5.0 9.0 0.00 0.01 0.00 93 1015.3
20221207075707 35 227 5.0 9.0 0.00 0.01 0.00 93 1015.2
20221207075207 35 240 5.0 9.0 0.00 0.01 0.00 93 1015.2
20221207074722 35 205 5.0 8.0 0.00 0.01 0.00 93 1015.1
20221207073710 35 238 5.0 9.0 0.00 0.01 0.00 93 1015.1
20221207073207 35 245 5.0 9.0 0.00 0.01 0.00 93 1015.2
20221207072706 35 236 4.0 7.0 0.00 0.01 0.00 93 1015.2
20221207072206 35 257 4.0 7.0 0.00 0.01 0.00 93 1015.2
20221207071706 35 215 4.0 7.0 0.00 0.01 0.00 93 1015.2
20221207071209 35 224 4.0 7.0 0.00 0.01 0.00 93 1015.1
20221207070707 35 226 5.0 7.0 0.00 0.01 0.00 93 1015.2
20221207070208 35 221 5.0 7.0 0.00 0.01 0.00 93 1015.2
20221207065707 35 258 4.0 8.0 0.00 0.01 0.00 93 1015.1
20221207065207 35 215 4.0 8.0 0.00 0.01 0.00 93 1015.1
20221207064707 35 248 5.0 9.0 0.00 0.01 0.00 93 1015.1
20221207064207 35 217 5.0 9.0 0.00 0.01 0.00 93 1015.0
20221207063707 35 231 6.0 9.0 0.00 0.01 0.00 93 1015.0
20221207063206 35 227 6.0 9.0 0.00 0.01 0.00 92 1015.0
20221207062707 35 253 6.0 9.0 0.00 0.01 0.00 92 1015.0
20221207061707 35 212 5.0 8.0 0.00 0.01 0.00 92 1015.0
20221207061225 35 250 4.0 7.0 0.00 0.01 0.00 92 1015.0
20221207060731 35 284 4.0 8.0 0.00 0.01 0.00 92 1015.1
20221207060228 35 221 4.0 8.0 0.00 0.01 0.00 92 1015.2
20221207055707 35 248 5.0 8.0 0.00 0.01 0.00 92 1015.2
20221207055206 35 221 4.0 7.0 0.00 0.01 0.00 92 1015.1
20221207054707 35 257 4.0 7.0 0.00 0.01 0.00 92 1015.1
20221207054210 35 255 5.0 7.0 0.00 0.01 0.00 92 1015.2
20221207053707 35 245 5.0 8.0 0.00 0.01 0.00 92 1015.1
20221207053207 35 234 5.0 8.0 0.00 0.01 0.00 92 1015.2
20221207052707 35 215 4.0 8.0 0.00 0.01 0.00 92 1015.2
20221207052207 35 234 5.0 8.0 0.00 0.01 0.00 92 1015.1
20221207051208 35 234 5.0 8.0 0.00 0.01 0.00 92 1015.2
20221207050710 35 239 5.0 8.0 0.00 0.01 0.00 92 1015.2
20221207050207 35 259 5.0 9.0 0.00 0.01 0.00 92 1015.3
20221207045707 35 246 6.0 9.0 0.00 0.01 0.00 92 1015.2
20221207045207 35 253 6.0 9.0 0.00 0.01 0.00 92 1015.0
20221207044708 34 214 5.0 8.0 0.00 0.01 0.00 92 1015.1
20221207044207 34 245 4.0 8.0 0.00 0.01 0.00 92 1015.1
20221207043707 34 214 3.0 6.0 0.00 0.01 0.00 93 1015.1
20221207043207 34 310 3.0 6.0 0.00 0.01 0.00 92 1015.1
20221207042707 34 245 2.0 5.0 0.00 0.01 0.00 92 1015.1
20221207042207 34 259 3.0 6.0 0.00 0.01 0.00 93 1015.1
20221207041707 34 215 3.0 6.0 0.00 0.01 0.00 93 1015.3
20221207040707 34 269 3.0 7.0 0.00 0.01 0.00 93 1015.2
20221207040207 34 260 3.0 7.0 0.00 0.01 0.00 93 1015.2
20221207035707 34 250 3.0 8.0 0.00 0.01 0.00 93 1015.2
20221207035207 34 238 4.0 8.0 0.00 0.01 0.00 93 1015.1
20221207034707 34 269 5.0 7.0 0.00 0.01 0.00 93 1015.2
20221207034207 34 240 4.0 7.0 0.00 0.01 0.00 93 1015.3
20221207033710 34 227 4.0 7.0 0.00 0.01 0.00 93 1015.3
20221207033206 34 231 4.0 6.0 0.00 0.01 0.00 93 1015.2
20221207032707 34 245 4.0 5.0 0.00 0.01 0.00 93 1015.4
20221207032207 34 233 4.0 7.0 0.00 0.01 0.00 93 1015.3
20221207031710 34 226 4.0 7.0 0.00 0.01 0.00 93 1015.3
20221207031206 34 199 4.0 9.0 0.00 0.01 0.00 93 1015.3
20221207030710 34 229 4.0 9.0 0.00 0.01 0.00 93 1015.4
20221207030207 34 215 4.0 9.0 0.00 0.01 0.00 93 1015.4
20221207025706 34 236 4.0 8.0 0.00 0.01 0.00 93 1015.4
20221207025206 34 259 4.0 8.0 0.00 0.01 0.00 93 1015.3
20221207024706 34 214 5.0 8.0 0.00 0.01 0.00 93 1015.4
20221207024207 34 215 5.0 9.0 0.00 0.01 0.00 93 1015.5
20221207023707 34 236 5.0 9.0 0.00 0.01 0.00 93 1015.4
20221207023209 34 239 4.0 7.0 0.00 0.01 0.00 93 1015.4
20221207022707 34 260 3.0 6.0 0.00 0.01 0.00 93 1015.5
20221207022208 34 260 2.0 6.0 0.00 0.01 0.00 93 1015.5
20221207021707 34 236 2.0 6.0 0.00 0.01 0.00 93 1015.6
20221207021207 34 269 3.0 6.0 0.00 0.01 0.00 93 1015.6
20221207020719 34 240 3.0 5.0 0.00 0.01 0.00 93 1015.8
20221207020207 34 215 3.0 5.0 0.00 0.01 0.00 93 1015.8
20221207015208 34 239 3.0 5.0 0.00 0.01 0.00 93 1015.9
20221207014707 34 243 3.0 5.0 0.00 0.01 0.00 93 1015.8
20221207014207 34 222 2.0 4.0 0.00 0.01 0.00 93 1015.8
20221207013707 34 214 3.0 4.0 0.00 0.01 0.00 93 1015.8
20221207012707 34 203 3.0 5.0 0.00 0.01 0.00 93 1015.8
20221207012207 34 238 3.0 5.0 0.00 0.01 0.00 93 1015.9
20221207010725 33 222 2.0 3.0 0.00 0.01 0.00 93 1016.0
20221207010207 33 262 1.0 3.0 0.00 0.01 0.00 93 1015.9
20221207005707 33 170 2.0 3.0 0.00 0.01 0.00 93 1016.1
20221207005207 33 269 1.0 3.0 0.00 0.01 0.00 93 1016.1
20221207004707 33 276 1.0 3.0 0.00 0.01 0.00 93 1016.1
20221207004207 33 302 1.0 3.0 0.00 0.01 0.00 92 1016.2
20221207003207 34 233 1.0 4.0 0.00 0.01 0.00 92 1016.2
20221207002710 34 245 1.0 4.0 0.00 0.01 0.00 92 1016.3
20221207001707 34 309 2.0 5.0 0.00 0.01 0.00 93 1016.4
20221207001207 34 302 3.0 5.0 0.00 0.01 0.00 93 1016.4
20221207000727 34 253 3.0 5.0 0.00 0.01 0.00 92 1016.4
20221207000206 34 295 2.0 5.0 0.00 0.01 0.01 92 1016.4
20221206235206 34 269 3.0 5.0 0.00 0.01 0.01 92 1016.5
20221206234207 34 279 2.0 3.0 0.00 0.01 0.01 92 1016.5
20221206233708 34 240 2.0 3.0 0.00 0.01 0.01 92 1016.5
20221206233206 34 295 2.0 3.0 0.00 0.01 0.01 92 1016.5
20221206232706 34 298 2.0 3.0 0.00 0.02 0.01 92 1016.5
20221206232210 35 283 2.0 3.0 0.00 0.02 0.01 92 1016.5
20221206231707 35 258 2.0 4.0 0.00 0.02 0.01 92 1016.5
20221206231224 35 260 2.0 4.0 0.00 0.02 0.01 92 1016.6
20221206230707 35 309 2.0 4.0 0.00 0.02 0.01 92 1016.5
20221206230207 35 278 2.0 4.0 0.00 0.02 0.01 92 1016.4
20221206225707 35 298 2.0 4.0 0.00 0.02 0.01 92 1016.5
20221206225207 35 240 2.0 4.0 0.00 0.02 0.01 92 1016.5
20221206224207 35 281 2.0 4.0 0.00 0.02 0.01 92 1016.4
20221206223707 35 302 2.0 5.0 0.00 0.02 0.01 92 1016.5
20221206223206 35 240 2.0 5.0 0.00 0.02 0.01 92 1016.6
20221206222706 35 258 2.0 4.0 0.00 0.02 0.01 92 1016.5
20221206222207 35 248 2.0 3.0 0.00 0.02 0.01 92 1016.6
20221206221707 35 262 2.0 4.0 0.00 0.02 0.01 92 1016.5
20221206221208 35 277 2.0 4.0 0.00 0.02 0.01 92 1016.4
20221206220706 35 310 2.0 5.0 0.00 0.02 0.01 92 1016.4
20221206220207 35 245 2.0 5.0 0.00 0.02 0.01 92 1016.4
20221206215707 36 286 2.0 5.0 0.00 0.02 0.01 92 1016.3
20221206215207 35 293 2.0 5.0 0.00 0.02 0.01 92 1016.4
20221206214707 36 269 3.0 5.0 0.00 0.02 0.01 92 1016.3
20221206214207 36 229 3.0 4.0 0.00 0.02 0.01 92 1016.3
20221206213707 36 246 2.0 3.0 0.00 0.02 0.01 92 1016.3
20221206213207 36 252 1.0 2.0 0.00 0.02 0.01 92 1016.4
20221206212707 36 231 1.0 2.0 0.00 0.02 0.01 92 1016.3
20221206212207 36 240 1.0 2.0 0.01 0.02 0.01 92 1016.3
20221206211707 36 253 1.0 4.0 0.01 0.02 0.01 92 1016.3
20221206211207 36 277 2.0 4.0 0.01 0.02 0.01 92 1016.2
20221206210706 36 258 2.0 4.0 0.01 0.02 0.01 92 1016.2
20221206210209 36 284 1.0 3.0 0.01 0.02 0.01 92 1016.4
20221206205707 36 269 1.0 3.0 0.01 0.02 0.01 92 1016.3
20221206205206 36 314 1.0 3.0 0.01 0.02 0.01 92 1016.4
20221206204706 36 269 1.0 3.0 0.01 0.02 0.01 92 1016.4
20221206204207 36 295 1.0 3.0 0.01 0.02 0.01 92 1016.4
20221206203707 36 302 1.0 2.0 0.01 0.02 0.01 92 1016.5
20221206203207 36 269 1.0 3.0 0.01 0.02 0.01 92 1016.4
20221206202707 36 283 1.0 3.0 0.00 0.01 0.00 92 1016.3
20221206202209 36 222 2.0 3.0 0.00 0.01 0.00 92 1016.4
20221206201707 36 286 2.0 3.0 0.00 0.01 0.00 92 1016.4
20221206201209 36 290 2.0 3.0 0.00 0.01 0.00 92 1016.4
20221206200707 36 276 2.0 4.0 0.00 0.01 0.00 92 1016.4
20221206200207 36 269 2.0 5.0 0.00 0.01 0.00 91 1016.3
20221206195207 36 274 3.0 5.0 0.00 0.01 0.00 91 1016.4
20221206194706 36 231 3.0 6.0 0.00 0.01 0.00 91 1016.4
20221206194207 36 236 3.0 7.0 0.00 0.01 0.00 91 1016.4
20221206193707 36 257 4.0 7.0 0.00 0.01 0.00 91 1016.4
20221206193207 36 257 5.0 7.0 0.00 0.01 0.00 92 1016.4
20221206192707 36 288 4.0 7.0 0.00 0.01 0.00 91 1016.3
20221206191730 36 269 4.0 6.0 0.00 0.01 0.00 91 1016.3
20221206191207 36 226 3.0 4.0 0.00 0.01 0.00 91 1016.3
20221206190707 36 226 2.0 4.0 0.00 0.01 0.00 91 1016.3
20221206190225 36 212 1.0 4.0 0.00 0.01 0.00 91 1016.3
20221206185708 36 272 1.0 3.0 0.00 0.01 0.00 91 1016.5
20221206185207 36 314 1.0 3.0 0.00 0.01 0.00 91 1016.4
20221206184207 36 306 1.0 4.0 0.00 0.01 0.00 91 1016.2
20221206183707 36 291 1.0 5.0 0.00 0.01 0.00 91 1016.3
20221206183207 36 253 2.0 5.0 0.00 0.01 0.00 91 1016.2
20221206182707 36 300 3.0 5.0 0.00 0.01 0.00 91 1016.3
20221206181708 36 274 3.0 6.0 0.00 0.01 0.00 91 1016.3
20221206181207 36 286 3.0 6.0 0.00 0.01 0.00 91 1016.3
20221206180228 36 295 3.0 5.0 0.00 0.01 0.00 91 1016.4
20221206175707 36 305 3.0 4.0 0.00 0.01 0.00 91 1016.3
20221206175207 36 269 2.0 4.0 0.00 0.01 0.00 91 1016.3
20221206174706 36 269 2.0 4.0 0.00 0.01 0.00 91 1016.2
20221206174207 36 250 1.0 2.0 0.00 0.01 0.00 91 1016.3
20221206173707 36 258 1.0 4.0 0.00 0.01 0.00 91 1016.3
20221206173207 36 257 1.0 4.0 0.00 0.01 0.00 91 1016.3
20221206172707 36 210 2.0 4.0 0.00 0.01 0.00 91 1016.3
20221206171708 36 227 2.0 7.0 0.00 0.01 0.00 90 1016.2
20221206170710 36 245 4.0 7.0 0.00 0.01 0.00 91 1016.3
20221206170206 36 252 4.0 7.0 0.00 0.01 0.00 91 1016.3
20221206165706 36 257 3.0 6.0 0.00 0.01 0.00 91 1016.4